RH
39 44 48 50 48 45 44 42 41 41 40 40 41 40 42 42 40 39 38 38 39 44 49 59 72 79 78 95 87 85 89 98 91 88 96 97 96 95
38 42 41 41 40 38 38 42 41 40 41 41 42 42 44 44 42 41 42 42 41 44 49 62 73 79 87 82 80 92 98 97 96 97 97 97 96 94
37 39 39 38 37 37 38 36 37 39 40 43 43 44 42 38 38 41 41 41 46 51 55 61 67 77 85 92 96 97 97 95 97 97 96 95 97 97
40 37 37 37 36 36 37 37 38 40 42 41 43 43 37 35 37 37 39 40 43 45 47 50 56 65 77 82 89 91 93 93 94 94 93 94 94 95
37 35 35 35 37 38 38 37 39 43 43 44 44 38 36 37 36 35 34 35 36 38 38 41 44 48 54 62 75 84 87 90 92 91 89 91 93 94
34 33 35 35 37 40 40 38 40 42 41 36 34 34 35 35 34 34 33 33 33 34 34 35 37 38 40 46 52 56 61 67 72 74 76 78 76 69
35 37 30 25 24 27 27 28 29 28 29 31 32 34 34 34 32 30 27 23 22 21 21 22 23 24 24 24 25 27 28 28 27 23 19 15 12 11
31 24 22 20 20 21 21 23 25 24 24 25 27 29 28 26 23 22 21 20 21 18 16 15 14 13 12 11 11 11 11 11 10 10 10 11 12 14
18 18 17 17 18 18 17 16 16 17 18 20 24 25 27 25 24 23 22 20 22 20 16 15 13 12 11 11 10 10 10 10 10 11 13 14 15 17
14 15 17 18 19 20 20 21 21 22 23 25 26 27 28 27 24 22 21 20 19 20 17 17 18 17 17 17 16 17 18 19 19 19 19 19 20 22
20 22 23 24 25 25 25 25 26 27 27 28 29 29 28 25 22 22 22 22 24 24 22 23 24 22 23 23 23 24 24 23 23 23 23 23 25 28
27 28 30 31 31 31 32 33 34 35 35 33 31 30 28 27 26 25 25 26 29 32 30 30 30 30 30 30 30 31 31 29 29 30 30 28 28 27
34 35 35 36 36 36 36 37 37 36 37 36 35 33 32 31 32 34 36 38 40 40 39 39 39 39 39 38 37 39 37 38 39 38 37 35 33 32
35 36 37 37 38 39 38 37 36 35 36 37 37 37 38 40 42 45 46 47 48 48 48 47 46 46 46 45 44 44 45 48 46 44 42 38 36 35
38 36 36 39 40 41 41 41 40 39 39 39 40 43 45 47 50 51 52 51 51 51 50 49 50 51 52 53 52 50 49 50 50 48 47 44 41 40
43 41 41 42 45 47 47 45 45 43 44 45 46 49 52 54 56 55 54 53 51 49 49 50 53 55 55 53 50 49 52 49 46 44 44 44 47 48
47 46 45 47 50 51 51 52 51 50 49 50 51 53 56 57 56 54 47 44 45 47 48 47 45 45 48 52 54 53 47 44 46 47 47 46 49 50
50 51 50 51 53 55 56 59 57 55 55 55 56 57 57 54 46 39 38 38 40 41 42 42 46 52 57 53 50 49 46 46 49 51 52 50 50 52
55 55 54 55 59 60 60 60 58 56 57 58 56 53 44 36 36 35 36 37 38 40 44 50 56 58 55 49 44 46 47 52 52 54 56 55 52 56
58 57 58 60 63 64 64 63 60 57 58 57 46 37 35 35 35 35 37 40 42 46 50 53 54 56 51 44 42 46 52 50 55 56 59 58 55 55
63 61 60 64 67 69 68 66 64 61 57 44 38 36 35 37 38 40 45 46 46 47 49 50 54 52 45 44 42 45 52 58 58 57 57 56 53 50
66 63 64 66 72 70 71 68 66 61 49 41 39 38 39 41 44 46 48 46 44 46 49 52 49 44 45 46 46 48 52 57 62 63 62 61 58 55
69 69 67 69 73 75 73 71 68 63 48 46 46 45 46 47 47 48 47 44 43 47 50 52 50 48 50 53 52 49 50 54 62 65 67 73 68 66